This is the latest recevied weather packets stored in our database for station/object DO6GZ. If no packets are shown the sender has not sent any weather packets the latest 1 day(s).
| Time | Temp. | Humidity | Pressure | Rain* | Wind** | Luminosity | Snow |
|---|---|---|---|---|---|---|---|
| 1778014284 | 12.22° C | 10% | - | 0.51 mm | 0 m/s | - | - |
| 1778013656 | 12.22° C | 10% | - | 0.25 mm | 0 m/s | - | - |
| 1778012401 | 12.78° C | 10% | - | 0 mm | 0.89 m/s, 0° | - | - |
| 1778011774 | 12.78° C | 10% | - | 0 mm | 0.45 m/s, 135° | - | - |
| 1778011147 | 12.78° C | 10% | - | 0 mm | 0.89 m/s, 315° | - | - |
| 1778010520 | 12.78° C | 10% | - | 0 mm | 0.89 m/s, 90° | - | - |
| 1778009892 | 12.78° C | 10% | - | 0 mm | 0.89 m/s, 0° | - | - |
| 1778009265 | 12.78° C | 10% | - | 0 mm | 3.13 m/s, 45° | - | - |
| 1778008010 | 13.33° C | 10% | - | 0 mm | 1.34 m/s, 45° | - | - |
| 1778007382 | 13.33° C | 10% | - | 0 mm | 0.89 m/s, 135° | - | - |
| 1778006755 | 13.33° C | 10% | - | 0 mm | 0 m/s | - | - |
| 1778005500 | 13.89° C | 10% | - | 0 mm | 0 m/s | - | - |
| 1778004245 | 13.89° C | 10% | - | 0 mm | 0 m/s | - | - |
| 1778003618 | 13.89° C | 10% | - | 0 mm | 0.45 m/s, 315° | - | - |
| 1778002990 | 14.44° C | 10% | - | 0 mm | 1.34 m/s, 135° | - | - |
| 1778002363 | 14.44° C | 10% | - | 0 mm | 0 m/s | - | - |
| 1778001107 | 14.44° C | 10% | - | 0 mm | 0 m/s | - | - |
| 1777999852 | 15° C | 10% | - | 0 mm | 4.02 m/s, 315° | - | - |
| 1777999225 | 14.44° C | 10% | - | 0 mm | 0.89 m/s, 135° | - | - |
| 1777998597 | 15° C | 10% | - | 0 mm | 2.24 m/s, 90° | - | - |
| 1777997970 | 15° C | 10% | - | 0 mm | 1.34 m/s, 135° | - | - |
| 1777996715 | 15.56° C | 10% | - | 0 mm | 0.45 m/s, 315° | - | - |
| 1777996087 | 15.56° C | 10% | - | 0 mm | 3.58 m/s, 45° | - | - |
| 1777995460 | 16.11° C | 10% | - | 0 mm | 0 m/s | - | - |
| 1777994832 | 15.56° C | 10% | - | 0 mm | 1.34 m/s, 135° | - | - |
* Rain latest hour (hover to see other rain measurements)
** Current wind speed in m/s (hover to see current wind gust speed)